Regional Weather Roundup
Issued by NWS Little Rock, AR

Home | Current Version | Previous Version | Graphics & Text | Print | Product List | Glossary On
Versions: 1 2 3 4 5 6 7 8 9 10 11 12 13 14 15 16 17 18 19 20 21 22 23 24 25 26 27 28 29 30 31 32 33 34 35 36 37 38 39 40 41 42 43 44 45 46 47 48
000
ASUS44 KLZK 030305
RWRLZK

WEATHER ROUNDUP FOR ARKANSAS
NATIONAL WEATHER SERVICE LITTLE ROCK AR
1000 PM CDT TUE JUN 02 2015

NOTE: "FAIR" INDICATES FEW OR NO CLOUDS BELOW 12,000 FEET WITH NO
SIGNIFICANT WEATHER AND/OR OBSTRUCTIONS TO VISIBILITY.

ARZ001-003-010-029-030400-
NORTHWEST ARKANSAS

CITY           SKY/WX    TMP DP  RH WIND       PRES   REMARKS
FAYETTEVILLE   CLEAR     68  65  90 CALM      29.99S
FORT SMITH     CLEAR     73  66  78 E5        29.95S
HARRISON       CLEAR     66  62  87 SE5       30.02S
BENTONVILLE    PTCLDY    72  64  78 SE3       30.00R
ROGERS         PTCLDY    71  67  87 E6        30.01R
SILOAM SPGS    CLEAR     70  61  73 S6        30.00R
HIGHFILL       CLEAR     71  66  84 S5        29.99R
$$

ARZ004-005-016-030400-
NORTH CENTRAL ARKANSAS

CITY           SKY/WX    TMP DP  RH WIND       PRES   REMARKS
BATESVILLE     CLEAR     64  59  82 E7        30.03R
FLIPPIN        CLEAR     66  61  82 E3        30.00R
MTN HOME       CLEAR     66  60  81 E6        30.02R
$$

ARZ040-041-030400-
WEST CENTRAL ARKANSAS

CITY           SKY/WX    TMP DP  RH WIND       PRES   REMARKS
MENA           CLEAR     70  68  94 CALM      30.00R
MOUNT IDA      PTCLDY    69  66  90 CALM      29.98R
$$

ARZ009-017-025-026-028-030400-
NORTHEAST ARKANSAS

CITY           SKY/WX    TMP DP  RH WIND       PRES   REMARKS
CORNING          N/A     61  59  94 NE7       30.05S
JONESBORO      CLEAR     60  58  92 NE6       30.04R
NEWPORT        CLEAR     65  61  87 NE7       30.05R
WALNUT RIDGE   CLEAR     63  55  77 NE8       30.05R
BLYTHEVILLE    CLOUDY    65  62  90 N6        30.04S
$$

ARZ022-023-033-042-044-030400-
CENTRAL ARKANSAS

CITY           SKY/WX    TMP DP  RH WIND       PRES   REMARKS
LITTLE ROCK    PTCLDY    71  62  73 E3        30.00R
N LITTLE ROCK  PTCLDY    69  65  86 E5        30.00R
JACKSONVILLE   CLEAR     68  64  88 E2        30.00R
SEARCY         CLEAR     67  63  87 E5        30.03R
HOT SPRINGS    CLEAR     70  64  81 CALM      29.99R
RUSSELLVILLE   PTCLDY    70  65  84 CALM      29.99R
CLINTON        FAIR      66  64  94 CALM      30.03R FOG
$$

ARZ036-030400-
EAST ARKANSAS

CITY           SKY/WX    TMP DP  RH WIND       PRES   REMARKS
WEST MEMPHIS   CLEAR     64  61  90 NE5       30.02R
$$

ARZ050-053-066-070-073-030400-
SOUTHWEST ARKANSAS

CITY           SKY/WX    TMP DP  RH WIND       PRES   REMARKS
ARKADELPHIA    FAIR      71  71 100 CALM      29.99R
CAMDEN         CLEAR     66  64  94 NE3       29.98R
TEXARKANA      CLEAR     73  67  81 CALM      29.97R
EL DORADO      PTCLDY    70  66  87 CALM      29.99R
DE QUEEN       CLEAR     69  68  96 CALM      29.95R
$$

ARZ056-057-069-030400-
SOUTHEAST ARKANSAS

CITY           SKY/WX    TMP DP  RH WIND       PRES   REMARKS
PINE BLUFF     CLEAR     69  65  86 NE3       30.00R
STUTTGART      CLEAR     70  61  73 MISG      30.01R
MONTICELLO     CLEAR     68  65  90 CALM      29.99R

$$




USA.gov is the U.S. government's official web portal to all federal, state and local government web resources and services.